Location: Vaughan
(31.9146°N, 97.1736°W)
Time: 14:39:39
(UTC+00:00)

SL-24 R/B - RUBIN 2 - Pass Details

Date: 10 December 2025
Orbit: 601 x 986 km, 64.6° (Epoch: 19 January)

Event Time Altitude Azimuth Distance (km) Brightness Sun altitude
Exits shadow 11:05:50 49° 143° (SE) 789 4.2 -27.4°
Drops below altitude 10° 11:09:10 10° 150° (SSE) 2,003 6.7 -26.7°
Sets 11:11:30 0° 151° (SSE) 2,948 7.6 -26.2°
